Weather History for Sulphur, LA

Change the Weather History Date:

Friday, March 15, 2013

  Actual Average (KLCH) Record (KLCH)
Temperature  
Mean Temperature 58 °F 61 °F  
Max Temperature 73 °F 71 °F 90 °F (2008)
Min Temperature 42 °F 51 °F 28 °F (1913)
Degree Days  
Heating Degree Days 8 5  
Month to date heating degree days 99  
Since 1 July heating degree days 1381  
Cooling Degree Days 0 2  
Month to date cooling degree days 17  
Year to date cooling degree days 40  
Growing Degree Days 8 (Base 50)    
Moisture  
Dew Point 53 °F    
Average Humidity 83    
Maximum Humidity 100    
Minimum Humidity 53    
Precipitation  
Precipitation 0.00 in 0.11 in 2.10 in (1896)
Month to date precipitation 1.78  
Year to date precipitation 10.47  
Snow  
Snow 0.00 in 0.00 in 0.00 in ()
Month to date snowfall 0.0  
Since 1 July snowfall 0.1  
Snow Depth -    
Sea Level Pressure  
Sea Level Pressure 30.22 in    
Wind  
Wind Speed 5 mph (South)    
Max Wind Speed 20 mph    
Max Gust Speed 25 mph    
Visibility 9 miles    
Events      
T = Trace of Precipitation, MM = Missing Value Source: NWS Daily Summary

Daily Weather History Graph

Daily Weather History Graph

Search for Another Location

Airport:

Trip Planner

Search our weather history database for the weather conditions in past years. The results will help you decide how hot, cold, wet, or windy it might be!

Date:

Astronomy

Mar. 15, 2013 Rise Set
Actual Time 7:23 AM CDT 7:21 PM CDT
Civil Twilight 6:59 AM CDT 7:45 PM CDT
Nautical Twilight 6:31 AM CDT 8:13 PM CDT
Astronomical Twilight 6:03 AM CDT 8:41 PM CDT
Moon 9:32 AM CDT (3/15) 11:15 PM CDT (3/15)
Length of Visible Light 12h 46m
Length of Day
11h 58m
Waxing Crescent, 15% of the Moon is Illuminated
Mar 15
Waxing Crescent
Mar 19
First Quarter
Mar 27
Full
Apr 2
Last Quarter
Apr 10
New

Hourly Weather History & Observations

Time (CDT) Temp. Dew Point Humidity Pressure Visibility Wind Dir Wind Speed Gust Speed Precip Events Conditions
12:15 AM 51.8 °F 46.4 °F 82% 30.32 in 10.0 mi Calm Calm - N/A   Clear
12:35 AM 50.0 °F 46.4 °F 87% 30.31 in 10.0 mi SSE 3.5 mph - N/A   Clear
12:55 AM 50.0 °F 48.2 °F 94% 30.31 in 10.0 mi Calm Calm - N/A   Clear
1:15 AM 50.0 °F 48.2 °F 94% 30.30 in 10.0 mi SSE 3.5 mph - N/A   Clear
1:35 AM 50.0 °F 46.4 °F 87% 30.29 in 10.0 mi Calm Calm - N/A   Clear
1:55 AM 50.0 °F 50.0 °F 100% 30.29 in 10.0 mi Calm Calm - N/A   Clear
2:15 AM 46.4 °F 44.6 °F 93% 30.28 in 10.0 mi Calm Calm - N/A   Clear
2:35 AM 46.4 °F 44.6 °F 93% 30.28 in 10.0 mi Calm Calm - N/A   Clear
2:55 AM 46.4 °F 46.4 °F 100% 30.27 in 1.8 mi Calm Calm - N/A   Mist
3:15 AM 46.4 °F 46.4 °F 100% 30.27 in 3.0 mi Calm Calm - N/A   Clear
3:35 AM 46.4 °F 46.4 °F 100% 30.26 in 5.0 mi Calm Calm - N/A   Clear
3:55 AM 44.6 °F 44.6 °F 100% 30.26 in 10.0 mi Calm Calm - N/A   Clear
4:15 AM 44.6 °F 44.6 °F 100% 30.25 in 10.0 mi Calm Calm - N/A   Clear
4:35 AM 44.6 °F 44.6 °F 100% 30.25 in 3.0 mi Calm Calm - N/A   Clear
4:55 AM 44.6 °F 44.6 °F 100% 30.24 in 7.0 mi Calm Calm - N/A   Clear
5:15 AM 44.6 °F 44.6 °F 100% 30.24 in 10.0 mi Calm Calm - N/A   Clear
5:35 AM 44.6 °F 44.6 °F 100% 30.25 in 10.0 mi Calm Calm - N/A   Clear
5:55 AM 44.6 °F 44.6 °F 100% 30.25 in 7.0 mi Calm Calm - N/A   Clear
6:15 AM 44.6 °F 44.6 °F 100% 30.26 in 5.0 mi Calm Calm - N/A   Clear
6:35 AM 44.6 °F 44.6 °F 100% 30.27 in 7.0 mi Calm Calm - N/A   Clear
6:55 AM 44.6 °F 42.8 °F 93% 30.27 in 7.0 mi Calm Calm - N/A   Clear
7:15 AM 44.6 °F 44.6 °F 100% 30.26 in 10.0 mi Calm Calm - N/A   Clear
7:35 AM 42.8 °F 42.8 °F 100% 30.27 in 10.0 mi Calm Calm - N/A   Clear
7:55 AM 44.6 °F 44.6 °F 100% 30.27 in 10.0 mi Calm Calm - N/A   Clear
8:15 AM 48.2 °F 48.2 °F 100% 30.27 in 7.0 mi SSE 4.6 mph - N/A   Clear
8:35 AM 55.4 °F 53.6 °F 94% 30.27 in 10.0 mi Calm Calm - N/A   Clear
8:55 AM 59.0 °F 57.2 °F 94% 30.27 in 10.0 mi SSE 4.6 mph - N/A   Clear
9:15 AM 62.6 °F 59.0 °F 88% 30.28 in 10.0 mi South 5.8 mph - N/A   Clear
9:35 AM 64.4 °F 59.0 °F 83% 30.28 in 10.0 mi South 8.1 mph - N/A   Clear
9:55 AM 64.4 °F 55.4 °F 73% 30.28 in 10.0 mi South 6.9 mph - N/A   Clear
10:55 AM 68.0 °F 57.2 °F 68% 30.29 in 10.0 mi SSW 12.7 mph 18.4 mph N/A   Clear
11:15 AM 69.8 °F 55.4 °F 60% 30.28 in 10.0 mi SSW 12.7 mph - N/A   Clear
11:35 AM 69.8 °F 55.4 °F 60% 30.28 in 10.0 mi SSW 15.0 mph 19.6 mph N/A   Clear
11:55 AM 71.6 °F 55.4 °F 57% 30.27 in 10.0 mi South 12.7 mph - N/A   Clear
12:15 PM 71.6 °F 55.4 °F 57% 30.27 in 10.0 mi SSW 12.7 mph 19.6 mph N/A   Clear
12:35 PM 71.6 °F 55.4 °F 57% 30.26 in 10.0 mi SSW 12.7 mph - N/A   Clear
12:55 PM 71.6 °F 55.4 °F 57% 30.25 in 10.0 mi South 13.8 mph 19.6 mph N/A   Clear
1:15 PM 71.6 °F 55.4 °F 57% 30.24 in 10.0 mi South 12.7 mph - N/A   Clear
1:35 PM 71.6 °F 55.4 °F 57% 30.23 in 10.0 mi SSW 16.1 mph 21.9 mph N/A   Clear
1:55 PM 73.4 °F 55.4 °F 53% 30.22 in 10.0 mi SSW 13.8 mph 21.9 mph N/A   Clear
2:15 PM 73.4 °F 57.2 °F 57% 30.21 in 10.0 mi South 16.1 mph 24.2 mph N/A   Clear
2:35 PM 73.4 °F 55.4 °F 53% 30.20 in 10.0 mi SSW 17.3 mph 24.2 mph N/A   Clear
2:55 PM 73.4 °F 59.0 °F 61% 30.19 in 10.0 mi SSW 17.3 mph 23.0 mph N/A   Clear
3:15 PM 71.6 °F 57.2 °F 60% 30.19 in 10.0 mi South 16.1 mph 21.9 mph N/A   Scattered Clouds
3:35 PM 71.6 °F 57.2 °F 60% 30.17 in 10.0 mi SSW 18.4 mph 25.3 mph N/A   Clear
3:55 PM 73.4 °F 57.2 °F 57% 30.17 in 10.0 mi South 18.4 mph 24.2 mph N/A   Scattered Clouds
4:15 PM 71.6 °F 59.0 °F 64% 30.16 in 10.0 mi SSW 17.3 mph 25.3 mph N/A   Clear
4:35 PM 71.6 °F 59.0 °F 64% 30.15 in 10.0 mi SSW 18.4 mph 21.9 mph N/A   Scattered Clouds
4:55 PM 71.6 °F 59.0 °F 64% 30.15 in 10.0 mi SSW 17.3 mph 21.9 mph N/A   Clear
5:15 PM 69.8 °F 57.2 °F 64% 30.14 in 10.0 mi SSW 19.6 mph 24.2 mph N/A   Clear
5:35 PM 71.6 °F 59.0 °F 64% 30.14 in 10.0 mi SSW 18.4 mph 24.2 mph N/A   Scattered Clouds
5:55 PM 69.8 °F 59.0 °F 68% 30.14 in 10.0 mi SSW 17.3 mph 23.0 mph N/A   Scattered Clouds
6:15 PM 69.8 °F 59.0 °F 68% 30.14 in 10.0 mi SSW 16.1 mph 19.6 mph N/A   Clear
6:35 PM 68.0 °F 59.0 °F 73% 30.14 in 10.0 mi South 11.5 mph 17.3 mph N/A   Scattered Clouds
6:55 PM 66.2 °F 59.0 °F 78% 30.13 in 10.0 mi South 10.4 mph 18.4 mph N/A   Scattered Clouds
7:15 PM 64.4 °F 59.0 °F 83% 30.13 in 10.0 mi South 10.4 mph - N/A   Scattered Clouds
7:35 PM 64.4 °F 59.0 °F 83% 30.13 in 10.0 mi South 10.4 mph - N/A   Scattered Clouds
7:55 PM 62.6 °F 59.0 °F 88% 30.13 in 10.0 mi South 8.1 mph - N/A   Clear
8:15 PM 62.6 °F 59.0 °F 88% 30.13 in 10.0 mi South 5.8 mph - N/A   Clear
8:35 PM 60.8 °F 59.0 °F 94% 30.14 in 10.0 mi South 3.5 mph - N/A   Scattered Clouds
8:55 PM 60.8 °F 59.0 °F 94% 30.14 in 10.0 mi Calm Calm - N/A   Scattered Clouds
9:15 PM 60.8 °F 59.0 °F 94% 30.15 in 10.0 mi Calm Calm - N/A   Scattered Clouds
9:35 PM 59.0 °F 59.0 °F 100% 30.15 in 10.0 mi Calm Calm - N/A   Scattered Clouds
9:55 PM 59.0 °F 57.2 °F 94% 30.15 in 10.0 mi South 3.5 mph - N/A   Scattered Clouds
10:15 PM 57.2 °F 57.2 °F 100% 30.15 in 10.0 mi SSE 3.5 mph - N/A   Scattered Clouds
10:35 PM 59.0 °F 59.0 °F 100% 30.15 in 10.0 mi SSE 3.5 mph - N/A   Scattered Clouds
10:55 PM 59.0 °F 57.2 °F 94% 30.14 in 10.0 mi SSE 5.8 mph - N/A   Clear
11:15 PM 59.0 °F 59.0 °F 100% 30.13 in 10.0 mi SSE 8.1 mph - N/A   Clear
11:35 PM 59.0 °F 59.0 °F 100% 30.12 in 10.0 mi SSE 9.2 mph - N/A   Clear
11:55 PM 60.8 °F 59.0 °F 94% 30.11 in 10.0 mi SSE 9.2 mph - N/A   Clear